• In Hungary
  • List of Countries
  • For 7 days
  • Water Temperature
  • Satellite Maps
  • Weather Map
  • News
  • Weather Widgets
  • user-avatar
    Login

    Hourly Weather Zmeevy Gorki

    Today, 23 October, Tuesday

    Time Temperature Precipitation Wind Pressure Humidity
    00:00 +4°C° 0.4 mm 4 mps 741 mmHg 85%
    01:00 +4°C° 0.4 mm 4 mps 740 mmHg 87%
    02:00 +4°C° 0.4 mm 4 mps 740 mmHg 88%
    03:00 +4°C° 0.6 mm 4 mps 739 mmHg 89%
    04:00 +4°C° 0.6 mm 3 mps 739 mmHg 90%
    05:00 +4°C° 0.6 mm 3 mps 738 mmHg 91%
    06:00 +4°C° 0.1 mm 3 mps 738 mmHg 90%
    07:00 +4°C° 0.1 mm 3 mps 738 mmHg 89%
    08:00 +4°C° 0.1 mm 3 mps 738 mmHg 89%
    09:00 +6°C° 0 mm 2 mps 738 mmHg 84%
    10:00 +6°C° 0 mm 2 mps 737 mmHg 79%
    11:00 +7°C° 0 mm 2 mps 737 mmHg 74%
    12:00 +7°C° 0 mm 2 mps 736 mmHg 72%
    13:00 +7°C° 0 mm 2 mps 736 mmHg 70%
    14:00 +7°C° 0 mm 2 mps 735 mmHg 68%
    15:00 +6°C° 0 mm 2 mps 734 mmHg 72%
    16:00 +5°C° 0 mm 2 mps 734 mmHg 77%
    17:00 +4°C° 0 mm 2 mps 733 mmHg 82%
    18:00 +4°C° 0 mm 2 mps 732 mmHg 82%
    19:00 +4°C° 0 mm 2 mps 732 mmHg 83%
    20:00 +4°C° 0 mm 2 mps 731 mmHg 83%
    21:00 +3°C° 0 mm 3 mps 730 mmHg 84%
    22:00 +3°C° 0 mm 3 mps 729 mmHg 84%
    23:00 +3°C° 0 mm 3 mps 728 mmHg 85%

    Tomorrow, 24 October, Wednesday

    Time Temperature Precipitation Wind Pressure Humidity
    00:00 +3°C° 0 mm 3 mps 727 mmHg 85%
    01:00 +2°C° 0 mm 3 mps 726 mmHg 85%
    02:00 +1°C° 0 mm 4 mps 726 mmHg 86%
    03:00 +1°C° 0.2 mm 4 mps 725 mmHg 85%
    04:00 +1°C° 0.2 mm 4 mps 724 mmHg 85%
    05:00 +3°C° 0.2 mm 4 mps 723 mmHg 85%
    06:00 +3°C° 0.2 mm 4 mps 723 mmHg 85%
    07:00 +3°C° 0.2 mm 4 mps 722 mmHg 84%
    08:00 +3°C° 0.2 mm 4 mps 722 mmHg 84%
    09:00 +3°C° 0.3 mm 4 mps 722 mmHg 84%
    10:00 +4°C° 0.3 mm 4 mps 722 mmHg 83%
    11:00 +4°C° 0.3 mm 4 mps 721 mmHg 82%
    12:00 +4°C° 0.4 mm 4 mps 721 mmHg 83%
    13:00 +4°C° 0.4 mm 3 mps 721 mmHg 84%
    14:00 +4°C° 0.4 mm 3 mps 721 mmHg 85%
    15:00 +4°C° 0.4 mm 3 mps 722 mmHg 86%
    16:00 +4°C° 0.4 mm 3 mps 722 mmHg 88%
    17:00 +4°C° 0.4 mm 3 mps 722 mmHg 89%
    18:00 +4°C° 0.3 mm 3 mps 722 mmHg 90%
    19:00 +5°C° 0.3 mm 2 mps 723 mmHg 91%
    20:00 +4°C° 0.3 mm 2 mps 723 mmHg 92%
    21:00 +4°C° 0.2 mm 2 mps 723 mmHg 93%
    22:00 +4°C° 0.2 mm 2 mps 723 mmHg 94%
    23:00 +4°C° 0.2 mm 2 mps 723 mmHg 94%

    Day after tomorrow, 25 October, Thursday

    Time Temperature Precipitation Wind Pressure Humidity
    00:00 +3°C° 0.1 mm 3 mps 724 mmHg 94%
    01:00 +3°C° 0.1 mm 3 mps 724 mmHg 93%
    02:00 +3°C° 0.1 mm 3 mps 724 mmHg 92%
    03:00 +3°C° 0.1 mm 4 mps 724 mmHg 91%
    04:00 +1°C° 0.1 mm 4 mps 724 mmHg 90%
    05:00 +1°C° 0.1 mm 5 mps 724 mmHg 88%
    06:00 +1°C° 0 mm 5 mps 724 mmHg 87%
    07:00 +1°C° 0 mm 5 mps 723 mmHg 86%
    08:00 -1°C° 0 mm 6 mps 723 mmHg 84%
    09:00 -1°C° 0 mm 6 mps 723 mmHg 83%
    10:00 -1°C° 0 mm 6 mps 723 mmHg 82%
    11:00 -1°C° 0 mm 6 mps 722 mmHg 81%
    12:00 -1°C° 0.1 mm 7 mps 722 mmHg 80%
    13:00 0°C° 0.1 mm 7 mps 722 mmHg 79%
    14:00 0°C° 0.1 mm 7 mps 722 mmHg 78%
    15:00 -1°C° 0.1 mm 7 mps 722 mmHg 78%
    16:00 -1°C° 0.1 mm 7 mps 722 mmHg 77%
    17:00 -1°C° 0.1 mm 7 mps 722 mmHg 77%
    18:00 -1°C° 0.1 mm 7 mps 722 mmHg 77%
    19:00 -1°C° 0.1 mm 7 mps 723 mmHg 77%
    20:00 -1°C° 0.1 mm 6 mps 723 mmHg 76%
    21:00 -1°C° 0 mm 6 mps 724 mmHg 76%
    22:00 -1°C° 0 mm 6 mps 724 mmHg 77%
    23:00 -1°C° 0 mm 6 mps 725 mmHg 77%

    26 October, Friday

    Time Temperature Precipitation Wind Pressure Humidity
    00:00 -1°C° 0 mm 6 mps 725 mmHg 78%
    01:00 -1°C° 0 mm 5 mps 726 mmHg 80%
    02:00 -1°C° 0 mm 5 mps 727 mmHg 81%
    03:00 -1°C° 0 mm 5 mps 727 mmHg 82%
    04:00 -1°C° 0 mm 5 mps 728 mmHg 83%
    05:00 -1°C° 0 mm 4 mps 728 mmHg 85%
    06:00 -1°C° 0 mm 4 mps 729 mmHg 84%
    07:00 -1°C° 0 mm 4 mps 729 mmHg 83%
    08:00 0°C° 0 mm 4 mps 730 mmHg 83%
    09:00 0°C° 0 mm 4 mps 730 mmHg 81%
    10:00 +1°C° 0 mm 4 mps 731 mmHg 79%
    11:00 +1°C° 0 mm 4 mps 731 mmHg 77%
    12:00 +1°C° 0 mm 4 mps 732 mmHg 77%
    13:00 +3°C° 0 mm 4 mps 732 mmHg 77%
    14:00 +3°C° 0 mm 4 mps 732 mmHg 77%
    15:00 +3°C° 0.1 mm 4 mps 733 mmHg 79%
    16:00 +1°C° 0.1 mm 4 mps 733 mmHg 80%
    17:00 +1°C° 0.1 mm 4 mps 734 mmHg 82%
    18:00 +2°C° 0 mm 3 mps 734 mmHg 83%
    19:00 +1°C° 0 mm 3 mps 734 mmHg 84%
    20:00 +1°C° 0 mm 3 mps 735 mmHg 86%
    21:00 +1°C° 0 mm 3 mps 735 mmHg 87%
    22:00 0°C° 0 mm 3 mps 735 mmHg 89%
    23:00 0°C° 0 mm 3 mps 736 mmHg 90%

    27 October, Saturday

    Time Temperature Precipitation Wind Pressure Humidity
    00:00 0°C° 0 mm 3 mps 736 mmHg 91%
    01:00 0°C° 0 mm 3 mps 737 mmHg 92%
    02:00 -1°C° 0 mm 3 mps 737 mmHg 93%
    03:00 -1°C° 0 mm 3 mps 738 mmHg 94%
    04:00 -1°C° 0 mm 3 mps 738 mmHg 95%
    05:00 -2°C° 0 mm 3 mps 739 mmHg 95%
    06:00 -1°C° 0 mm 3 mps 739 mmHg 94%
    07:00 -1°C° 0 mm 3 mps 739 mmHg 93%
    08:00 -1°C° 0 mm 3 mps 740 mmHg 92%
    09:00 0°C° 0 mm 3 mps 740 mmHg 89%
    10:00 +1°C° 0 mm 3 mps 739 mmHg 85%
    11:00 +2°C° 0 mm 3 mps 739 mmHg 81%
    12:00 +3°C° 0 mm 3 mps 739 mmHg 80%
    13:00 +4°C° 0 mm 4 mps 739 mmHg 79%
    14:00 +4°C° 0 mm 4 mps 738 mmHg 77%
    15:00 +4°C° 0.2 mm 4 mps 738 mmHg 80%
    16:00 +3°C° 0.2 mm 5 mps 737 mmHg 82%
    17:00 +3°C° 0.2 mm 5 mps 737 mmHg 85%
    18:00 +3°C° 0.2 mm 6 mps 737 mmHg 85%
    19:00 +4°C° 0.2 mm 6 mps 736 mmHg 85%
    20:00 +4°C° 0.2 mm 6 mps 736 mmHg 86%
    21:00 +5°C° 0.1 mm 5 mps 736 mmHg 85%
    22:00 +5°C° 0.1 mm 5 mps 736 mmHg 85%
    23:00 +5°C° 0.1 mm 5 mps 737 mmHg 84%

    28 October, Sunday

    Time Temperature Precipitation Wind Pressure Humidity
    00:00 +5°C° 0.1 mm 4 mps 737 mmHg 86%
    01:00 +5°C° 0.1 mm 4 mps 737 mmHg 88%
    02:00 +4°C° 0.1 mm 3 mps 737 mmHg 90%
    03:00 +4°C° 0.1 mm 3 mps 737 mmHg 91%
    04:00 +4°C° 0.1 mm 3 mps 737 mmHg 92%
    05:00 +5°C° 0.1 mm 2 mps 737 mmHg 93%
    06:00 +5°C° 0.2 mm 2 mps 737 mmHg 94%
    07:00 +5°C° 0.2 mm 2 mps 737 mmHg 95%
    08:00 +6°C° 0.2 mm 1 mps 737 mmHg 95%
    09:00 +6°C° 0.4 mm 1 mps 737 mmHg 95%
    10:00 +7°C° 0.4 mm 1 mps 737 mmHg 94%
    11:00 +7°C° 0.4 mm 1 mps 737 mmHg 93%
    12:00 +7°C° 0.9 mm 1 mps 737 mmHg 94%
    13:00 +7°C° 0.9 mm 1 mps 736 mmHg 96%
    14:00 +7°C° 0.9 mm 1 mps 736 mmHg 97%
    15:00 +6°C° 1.8 mm 2 mps 735 mmHg 97%
    16:00 +6°C° 1.8 mm 2 mps 735 mmHg 97%
    17:00 +6°C° 1.8 mm 2 mps 734 mmHg 97%
    18:00 +6°C° 1.2 mm 2 mps 734 mmHg 97%
    19:00 +7°C° 1.2 mm 2 mps 734 mmHg 97%
    20:00 +7°C° 1.2 mm 2 mps 733 mmHg 97%
    21:00 +8°C° 0.1 mm 3 mps 733 mmHg 95%
    22:00 +8°C° 0.1 mm 4 mps 733 mmHg 94%
    23:00 +10°C° 0.1 mm 4 mps 732 mmHg 92%
    Show more